Time,TemperatureF,DewpointF,PressureIn,WindDirection,WindDirectionDegrees,WindSpeedMPH,WindSpeedGustMPH,Humidity,HourlyPrecipIn,Conditions,Clouds,dailyrainin,SoftwareType,DateUTC
2013-11-08 00:12:00,37.1,20.0,30.20,South,190,0.0,0.0,51,0.00,,,0.00,weatherlink.com 1.10,2013-11-08 07:12:00,
2013-11-08 00:27:00,36.3,20.0,30.20,South,190,0.0,0.0,51,0.00,,,0.00,weatherlink.com 1.10,2013-11-08 07:27:00,
2013-11-08 00:42:00,35.7,20.0,30.20,South,190,0.0,0.0,54,0.00,,,0.00,weatherlink.com 1.10,2013-11-08 07:42:00,
2013-11-08 00:57:00,34.7,21.0,30.21,South,190,0.0,0.0,58,0.00,,,0.00,weatherlink.com 1.10,2013-11-08 07:57:00,
2013-11-08 01:12:00,34.1,21.0,30.20,South,190,0.0,0.0,58,0.00,,,0.00,weatherlink.com 1.10,2013-11-08 08:12:00,
2013-11-08 01:27:00,33.8,21.0,30.21,South,190,0.0,0.0,59,0.00,,,0.00,weatherlink.com 1.10,2013-11-08 08:27:00,
2013-11-08 01:42:00,33.5,21.0,30.20,South,190,0.0,0.0,61,0.00,,,0.00,weatherlink.com 1.10,2013-11-08 08:42:00,
2013-11-08 01:57:00,34.0,21.0,30.20,SSE,163,0.0,0.0,60,0.00,,,0.00,weatherlink.com 1.10,2013-11-08 08:57:00,
2013-11-08 02:12:00,36.2,20.0,30.20,SSE,163,0.0,0.0,53,0.00,,,0.00,weatherlink.com 1.10,2013-11-08 09:12:00,
2013-11-08 02:27:00,36.6,20.0,30.20,SSE,163,0.0,0.0,51,0.00,,,0.00,weatherlink.com 1.10,2013-11-08 09:27:00,
2013-11-08 02:42:00,35.6,20.0,30.19,SSE,163,0.0,0.0,53,0.00,,,0.00,weatherlink.com 1.10,2013-11-08 09:42:00,
2013-11-08 02:57:00,34.9,20.0,30.19,SSE,163,0.0,0.0,55,0.00,,,0.00,weatherlink.com 1.10,2013-11-08 09:57:00,
2013-11-08 03:12:00,34.4,20.0,30.19,SSE,163,0.0,0.0,57,0.00,,,0.00,weatherlink.com 1.10,2013-11-08 10:12:00,
2013-11-08 03:27:00,33.7,21.0,30.18,SSE,163,0.0,0.0,59,0.00,,,0.00,weatherlink.com 1.10,2013-11-08 10:27:00,
2013-11-08 03:42:00,33.5,20.0,30.17,SSE,163,0.0,0.0,59,0.00,,,0.00,weatherlink.com 1.10,2013-11-08 10:42:00,
2013-11-08 03:57:00,34.1,20.0,30.17,SSE,163,0.0,0.0,57,0.00,,,0.00,weatherlink.com 1.10,2013-11-08 10:57:00,
2013-11-08 04:12:00,34.5,19.0,30.17,SSE,163,0.0,0.0,54,0.00,,,0.00,weatherlink.com 1.10,2013-11-08 11:12:00,
2013-11-08 04:27:00,34.8,20.0,30.16,SSE,163,0.0,0.0,56,0.00,,,0.00,weatherlink.com 1.10,2013-11-08 11:27:00,
2013-11-08 04:42:00,34.8,19.0,30.16,SSE,163,0.0,0.0,53,0.00,,,0.00,weatherlink.com 1.10,2013-11-08 11:42:00,
2013-11-08 04:57:00,34.1,19.0,30.16,SSE,163,0.0,0.0,55,0.00,,,0.00,weatherlink.com 1.10,2013-11-08 11:57:00,
2013-11-08 05:12:00,33.8,19.0,30.16,SSE,163,0.0,0.0,56,0.00,,,0.00,weatherlink.com 1.10,2013-11-08 12:12:00,
2013-11-08 05:27:00,33.7,20.0,30.16,SSE,163,0.0,0.0,57,0.00,,,0.00,weatherlink.com 1.10,2013-11-08 12:27:00,
2013-11-08 05:42:00,32.9,21.0,30.16,SSE,163,0.0,0.0,61,0.00,,,0.00,weatherlink.com 1.10,2013-11-08 12:42:00,
2013-11-08 05:57:00,32.4,23.0,30.16,SSE,163,0.0,0.0,69,0.00,,,0.00,weatherlink.com 1.10,2013-11-08 12:57:00,
2013-11-08 06:12:00,31.6,24.0,30.16,SSE,163,0.0,0.0,72,0.00,,,0.00,weatherlink.com 1.10,2013-11-08 13:12:00,
2013-11-08 06:27:00,31.0,24.0,30.16,SSE,163,0.0,0.0,75,0.00,,,0.00,weatherlink.com 1.10,2013-11-08 13:27:00,
2013-11-08 06:42:00,30.9,24.0,30.16,SSE,163,0.0,0.0,76,0.00,,,0.00,weatherlink.com 1.10,2013-11-08 13:42:00,
2013-11-08 06:57:00,30.5,24.0,30.16,SSE,163,0.0,0.0,77,0.00,,,0.00,weatherlink.com 1.10,2013-11-08 13:57:00,
2013-11-08 07:12:00,31.1,25.0,30.16,SSE,163,0.0,0.0,77,0.00,,,0.00,weatherlink.com 1.10,2013-11-08 14:12:00,
2013-11-08 07:27:00,33.3,25.0,30.16,SSE,163,0.0,0.0,72,0.00,,,0.00,weatherlink.com 1.10,2013-11-08 14:27:00,
2013-11-08 07:42:00,36.7,26.0,30.16,SSE,163,0.0,0.0,65,0.00,,,0.00,weatherlink.com 1.10,2013-11-08 14:42:00,
2013-11-08 07:57:00,39.6,23.0,30.16,SSE,163,0.0,0.0,52,0.00,,,0.00,weatherlink.com 1.10,2013-11-08 14:57:00,
2013-11-08 08:12:00,42.0,22.0,30.17,SSE,163,0.0,0.0,46,0.00,,,0.00,weatherlink.com 1.10,2013-11-08 15:12:00,
2013-11-08 08:28:00,44.7,22.0,30.16,SSE,163,0.0,0.0,41,0.00,,,0.00,weatherlink.com 1.10,2013-11-08 15:28:00,
2013-11-08 08:43:00,47.1,20.0,30.16,SSE,164,3.0,3.0,34,0.00,,,0.00,weatherlink.com 1.10,2013-11-08 15:43:00,
2013-11-08 08:58:00,47.3,21.0,30.16,SSE,164,0.0,2.0,35,0.00,,,0.00,weatherlink.com 1.10,2013-11-08 15:58:00,
2013-11-08 09:13:00,48.7,21.0,30.15,SSE,164,0.0,3.0,34,0.00,,,0.00,weatherlink.com 1.10,2013-11-08 16:13:00,
2013-11-08 09:28:00,49.7,19.0,30.15,SSE,165,0.0,3.0,30,0.00,,,0.00,weatherlink.com 1.10,2013-11-08 16:28:00,
2013-11-08 09:43:00,50.4,21.0,30.15,SSE,165,0.0,2.0,31,0.00,,,0.00,weatherlink.com 1.10,2013-11-08 16:43:00,
2013-11-08 09:58:00,50.3,21.0,30.15,WNW,292,0.0,2.0,31,0.00,,,0.00,weatherlink.com 1.10,2013-11-08 16:58:00,
2013-11-08 10:13:00,51.7,20.0,30.15,SSW,205,0.0,3.0,29,0.00,,,0.00,weatherlink.com 1.10,2013-11-08 17:13:00,
2013-11-08 10:28:00,53.6,21.0,30.14,SSW,194,0.0,2.0,28,0.00,,,0.00,weatherlink.com 1.10,2013-11-08 17:28:00,
2013-11-08 10:43:00,54.0,21.0,30.13,South,189,0.0,2.0,28,0.00,,,0.00,weatherlink.com 1.10,2013-11-08 17:43:00,
2013-11-08 10:58:00,55.0,21.0,30.12,SSW,207,1.0,5.0,27,0.00,,,0.00,weatherlink.com 1.10,2013-11-08 17:58:00,
2013-11-08 11:13:00,56.1,23.0,30.11,South,180,0.0,2.0,28,0.00,,,0.00,weatherlink.com 1.10,2013-11-08 18:13:00,
2013-11-08 11:28:00,56.6,24.0,30.10,SSW,202,3.0,7.0,28,0.00,,,0.00,weatherlink.com 1.10,2013-11-08 18:28:00,
2013-11-08 11:43:00,57.1,24.0,30.09,SSW,196,0.0,1.0,28,0.00,,,0.00,weatherlink.com 1.10,2013-11-08 18:43:00,
2013-11-08 11:58:00,57.6,25.0,30.07,South,175,0.0,4.0,28,0.00,,,0.00,weatherlink.com 1.10,2013-11-08 18:58:00,
2013-11-08 12:13:00,58.6,25.0,30.06,SW,219,0.0,4.0,28,0.00,,,0.00,weatherlink.com 1.10,2013-11-08 19:13:00,
2013-11-08 12:28:00,58.5,24.0,30.05,WSW,254,1.0,4.0,27,0.00,,,0.00,weatherlink.com 1.10,2013-11-08 19:28:00,
2013-11-08 12:43:00,58.5,26.0,30.03,SSW,198,2.0,5.0,29,0.00,,,0.00,weatherlink.com 1.10,2013-11-08 19:43:00,
2013-11-08 12:58:00,59.4,26.0,30.02,South,190,0.0,6.0,28,0.00,,,0.00,weatherlink.com 1.10,2013-11-08 19:58:00,
2013-11-08 13:13:00,60.0,26.0,30.02,SW,221,1.0,4.0,27,0.00,,,0.00,weatherlink.com 1.10,2013-11-08 20:13:00,
2013-11-08 13:29:00,59.9,25.0,30.01,WSW,244,5.0,5.0,26,0.00,,,0.00,weatherlink.com 1.10,2013-11-08 20:29:00,
2013-11-08 13:44:00,60.8,25.0,30.00,South,182,0.0,3.0,25,0.00,,,0.00,weatherlink.com 1.10,2013-11-08 20:44:00,
2013-11-08 13:59:00,61.0,23.0,30.00,SW,232,0.0,3.0,23,0.00,,,0.00,weatherlink.com 1.10,2013-11-08 20:59:00,
2013-11-08 14:14:00,61.3,24.0,30.00,SW,225,0.0,4.0,24,0.00,,,0.00,weatherlink.com 1.10,2013-11-08 21:14:00,
2013-11-08 14:29:00,62.3,23.0,29.99,South,173,0.0,2.0,22,0.00,,,0.00,weatherlink.com 1.10,2013-11-08 21:29:00,
2013-11-08 14:44:00,62.8,22.0,29.99,South,179,1.0,2.0,21,0.00,,,0.00,weatherlink.com 1.10,2013-11-08 21:44:00,
2013-11-08 14:59:00,63.1,22.0,29.98,SSE,163,0.0,2.0,21,0.00,,,0.00,weatherlink.com 1.10,2013-11-08 21:59:00,
2013-11-08 15:14:00,62.4,22.0,29.98,SSE,149,0.0,0.0,21,0.00,,,0.00,weatherlink.com 1.10,2013-11-08 22:14:00,
2013-11-08 15:29:00,62.1,23.0,29.98,SE,138,0.0,1.0,22,0.00,,,0.00,weatherlink.com 1.10,2013-11-08 22:29:00,
2013-11-08 15:44:00,61.8,22.0,29.97,SE,138,0.0,0.0,22,0.00,,,0.00,weatherlink.com 1.10,2013-11-08 22:44:00,
2013-11-08 15:59:00,61.3,23.0,29.97,SE,140,0.0,0.0,23,0.00,,,0.00,weatherlink.com 1.10,2013-11-08 22:59:00,
2013-11-08 16:14:00,61.4,22.0,29.96,South,171,0.0,2.0,22,0.00,,,0.00,weatherlink.com 1.10,2013-11-08 23:14:00,
2013-11-08 16:29:00,61.5,23.0,29.96,South,170,0.0,3.0,23,0.00,,,0.00,weatherlink.com 1.10,2013-11-08 23:29:00,
2013-11-08 16:44:00,61.7,23.0,29.96,South,170,0.0,0.0,23,0.00,,,0.00,weatherlink.com 1.10,2013-11-08 23:44:00,
2013-11-08 16:59:00,60.5,24.0,29.96,South,170,0.0,1.0,25,0.00,,,0.00,weatherlink.com 1.10,2013-11-08 23:59:00,
2013-11-08 17:14:00,58.3,24.0,29.95,South,170,0.0,0.0,27,0.00,,,0.00,weatherlink.com 1.10,2013-11-09 00:14:00,
2013-11-08 17:29:00,56.7,27.0,29.96,South,170,0.0,0.0,32,0.00,,,0.00,weatherlink.com 1.10,2013-11-09 00:29:00,
2013-11-08 17:44:00,54.5,23.0,29.96,South,170,0.0,0.0,30,0.00,,,0.00,weatherlink.com 1.10,2013-11-09 00:44:00,
2013-11-08 17:59:00,52.9,26.0,29.97,South,170,0.0,0.0,35,0.00,,,0.00,weatherlink.com 1.10,2013-11-09 00:59:00,
2013-11-08 18:14:00,51.5,25.0,29.98,South,170,0.0,0.0,36,0.00,,,0.00,weatherlink.com 1.10,2013-11-09 01:14:00,
2013-11-08 18:29:00,50.3,26.0,29.98,South,170,0.0,0.0,39,0.00,,,0.00,weatherlink.com 1.10,2013-11-09 01:29:00,
2013-11-08 18:44:00,49.4,26.0,29.98,South,170,0.0,0.0,40,0.00,,,0.00,weatherlink.com 1.10,2013-11-09 01:44:00,
2013-11-08 18:59:00,49.0,26.0,29.98,South,170,0.0,0.0,41,0.00,,,0.00,weatherlink.com 1.10,2013-11-09 01:59:00,
2013-11-08 19:14:00,48.1,26.0,29.99,South,170,0.0,0.0,42,0.00,,,0.00,weatherlink.com 1.10,2013-11-09 02:14:00,
2013-11-08 19:29:00,47.0,26.0,29.99,South,170,0.0,0.0,45,0.00,,,0.00,weatherlink.com 1.10,2013-11-09 02:29:00,
2013-11-08 19:44:00,46.3,27.0,29.99,South,170,0.0,0.0,47,0.00,,,0.00,weatherlink.com 1.10,2013-11-09 02:44:00,
2013-11-08 19:59:00,45.6,26.0,29.99,East,88,0.0,0.0,47,0.00,,,0.00,weatherlink.com 1.10,2013-11-09 02:59:00,
2013-11-08 20:14:00,46.1,26.0,30.00,East,88,0.0,0.0,45,0.00,,,0.00,weatherlink.com 1.10,2013-11-09 03:14:00,
2013-11-08 20:29:00,45.7,26.0,30.00,East,88,0.0,0.0,46,0.00,,,0.00,weatherlink.com 1.10,2013-11-09 03:29:00,
2013-11-08 20:44:00,46.2,26.0,29.99,East,88,0.0,0.0,45,0.00,,,0.00,weatherlink.com 1.10,2013-11-09 03:44:00,
2013-11-08 20:59:00,45.2,26.0,30.00,East,88,0.0,0.0,47,0.00,,,0.00,weatherlink.com 1.10,2013-11-09 03:59:00,
2013-11-08 21:14:00,44.6,26.0,29.99,East,88,0.0,0.0,48,0.00,,,0.00,weatherlink.com 1.10,2013-11-09 04:14:00,
2013-11-08 21:29:00,44.2,26.0,30.00,East,88,0.0,0.0,50,0.00,,,0.00,weatherlink.com 1.10,2013-11-09 04:29:00,
2013-11-08 21:44:00,43.1,26.0,30.00,East,88,0.0,0.0,51,0.00,,,0.00,weatherlink.com 1.10,2013-11-09 04:44:00,
2013-11-08 21:59:00,43.2,26.0,30.00,East,88,0.0,0.0,52,0.00,,,0.00,weatherlink.com 1.10,2013-11-09 04:59:00,
2013-11-08 22:14:00,43.4,26.0,30.01,East,88,0.0,0.0,51,0.00,,,0.00,weatherlink.com 1.10,2013-11-09 05:14:00,
2013-11-08 22:29:00,42.5,26.0,30.01,East,88,0.0,0.0,52,0.00,,,0.00,weatherlink.com 1.10,2013-11-09 05:29:00,
2013-11-08 22:44:00,41.7,26.0,30.01,East,88,0.0,0.0,55,0.00,,,0.00,weatherlink.com 1.10,2013-11-09 05:44:00,
2013-11-08 22:59:00,42.5,26.0,30.00,East,88,0.0,0.0,53,0.00,,,0.00,weatherlink.com 1.10,2013-11-09 05:59:00,
2013-11-08 23:14:00,41.6,26.0,30.01,East,88,0.0,0.0,55,0.00,,,0.00,weatherlink.com 1.10,2013-11-09 06:14:00,
2013-11-08 23:29:00,40.4,26.0,30.01,East,88,0.0,0.0,58,0.00,,,0.00,weatherlink.com 1.10,2013-11-09 06:29:00,
2013-11-08 23:44:00,40.3,27.0,30.01,East,88,0.0,0.0,59,0.00,,,0.00,weatherlink.com 1.10,2013-11-09 06:44:00,
2013-11-08 23:59:00,40.4,26.0,30.01,East,88,0.0,0.0,58,0.00,,,0.00,weatherlink.com 1.10,2013-11-09 06:59:00,